Location: Unspecified
(25.7637°N, 0.0000°E)
Time: 05:21:12
(UTC+00:00)

Explorer 11/Cluster Stage 4 - Visible Passes

Search period start: 04 April 2026 00:00
Search period end: 14 April 2026 00:00
Orbit: 463 x 1175 km, 28.8° (Epoch: 29 March)

Date Brightness Start Highest point End Pass type
(mag) Time Alt. Az. Time Alt. Az. Time Alt. Az.
4 Apr 6.2 20:07:23 10° WNW 20:11:36 67° WNW 20:11:36 67° WNW visible
5 Apr 5.9 19:42:35 10° WNW 19:47:41 86° NNE 19:48:36 56° E visible
6 Apr 6.1 19:17:44 10° WNW 19:23:10 88° N 19:25:37 27° ESE visible
6 Apr 9.0 21:06:24 10° W 21:06:50 12° W 21:06:50 12° W visible
7 Apr 6.4 18:52:50 10° WNW 18:58:37 89° NNE 19:02:38 14° ESE visible
7 Apr 8.2 20:41:37 10° W 20:43:51 21° WSW 20:43:51 21° WSW visible
8 Apr 7.5 20:16:46 10° W 20:20:53 30° SW 20:20:53 30° SW visible
9 Apr 7.4 19:51:52 10° W 19:56:42 32° SSW 19:57:57 28° S visible
10 Apr 7.6 19:26:56 10° W 19:32:07 33° SSW 19:35:02 18° SSE visible
11 Apr 7.8 19:01:58 10° W 19:07:28 34° SSW 19:12:02 10° SE visible
12 Apr 8.0 18:36:57 10° W 18:42:47 35° SSW 18:47:38 10° SE visible
